• Join FlightAware (Why Join?)
  • Login
  • US Flag 
08:01AM EDT


 

Airport Tracker/Info


-or-


 

Live Flight TrackerFlight Track Log ✈ N55VF ✈ 25-Apr-2013 ✈ KPOV - KHAO

Flight Track Log - Related Links

Times and Time Zones

All times are in EDT time to prevent confusion due to time zone crossing. See the N55VF flight status page for this flight to view local times or setup timezone preferences in your user account.

Time Position Orientation Groundspeed Altitude Reporting Facility
EDT Latitude Longitude Course Direction KTS MPH feet Rate Location/Type
07:48AM 41.1190 -81.3110 236° Southwest 130 150 5,000  Level FlightAware
07:49AM 41.1090 -81.3320 238° Southwest 148 170 5,300 600 Climbing FlightAware
07:49AM 41.0980 -81.3530 235° Southwest 153 176 5,600 540 Climbing FlightAware
07:50AM 41.0870 -81.3740 235° Southwest 163 188 5,800 180 Climbing FlightAware
07:50AM 41.0750 -81.3980 236° Southwest 173 199 5,800  Level FlightAware
07:51AM 41.0610 -81.4240 234° Southwest 176 203 5,800 60 Level FlightAware
07:51AM 41.0470 -81.4500 234° Southwest 168 193 5,900 300 Climbing FlightAware
07:52AM 41.0370 -81.4700 236° Southwest 158 182 6,100 600 Climbing FlightAware
07:52AM 41.0300 -81.4830 234° Southwest 153 176 6,300 720 Climbing FlightAware
07:52AM 41.0210 -81.5000 235° Southwest 148 170 6,600 660 Climbing FlightAware
07:53AM 41.0130 -81.5170 238° Southwest 148 170 6,800 360 Climbing FlightAware
07:53AM 41.0030 -81.5350 234° Southwest 151 174 6,900 300 Climbing FlightAware
07:53AM 40.9910 -81.5580 235° Southwest 153 176 7,100 300 Climbing FlightAware
07:54AM 40.9810 -81.5770 235° Southwest 153 176 7,200 300 Climbing FlightAware
07:54AM 40.9690 -81.6010 236° Southwest 153 176 7,400 300 Climbing FlightAware
07:55AM 40.9590 -81.6190 234° Southwest 153 176 7,500 300 Climbing FlightAware
07:55AM 40.9520 -81.6320 235° Southwest 152 175 7,600 360 Climbing FlightAware
07:56AM 40.9410 -81.6540 237° Southwest 153 176 7,800 180 Climbing FlightAware
07:56AM 40.9280 -81.6770 233° Southwest 161 185 7,800  Level FlightAware
07:57AM 40.9150 -81.7030 237° Southwest 163 188 7,800  Level FlightAware
07:57AM 40.9040 -81.7230 234° Southwest 165 190 7,800  Level FlightAware
07:57AM 40.8910 -81.7480 235° Southwest 165 190 7,800  Level FlightAware
07:58AM 40.8800 -81.7690 235° Southwest 165 190 7,800  Level FlightAware
07:58AM 40.8740 -81.7810 237° Southwest 163 188 7,800 -180 Level FlightAware
07:59AM 40.8610 -81.8060 235° Southwest 165 190 7,700  Descending FlightAware
07:59AM 40.8500 -81.8280 237° Southwest 165 190 7,800 60 Climbing FlightAware
08:00AM 40.8360 -81.8530 233° Southwest 166 191 7,800 -180 Level FlightAware
08:00AM 40.8300 -81.8640 234° Southwest 166 191 7,700 -180 Descending FlightAware
08:00AM 40.8190 -81.8860 237° Southwest 165 190 7,700  Level FlightAware
08:01AM 40.8060 -81.9100 234° Southwest 165 190 7,700 60 Level FlightAware
08:01AM 40.7940 -81.9330 235° Southwest 164 189 7,800  Climbing FlightAware
08:02AM 40.7820 -81.9550 234° Southwest 164 189 7,700  Descending FlightAware
08:02AM 40.7710 -81.9760 235° Southwest 165 190 7,800 120 Climbing FlightAware
08:02AM 40.7620 -81.9930 235° Southwest 165 190 7,800 -180 Level FlightAware
08:03AM 40.7520 -82.0130 237° Southwest 165 190 7,700 -120 Descending FlightAware
08:03AM 40.7380 -82.0380 234° Southwest 167 192 7,700 60 Level FlightAware
08:04AM 40.7270 -82.0600 237° Southwest 165 190 7,800  Climbing FlightAware
08:04AM 40.7140 -82.0830 233° Southwest 165 190 7,700  Descending FlightAware
08:04AM 40.7070 -82.0960 235° Southwest 165 190 7,800  Climbing FlightAware
08:05AM 40.6970 -82.1160 237° Southwest 166 191 7,700 -180 Descending FlightAware
08:05AM 40.6890 -82.1300 233° Southwest 167 192 7,700 120 Level FlightAware
08:06AM 40.6780 -82.1500 234° Southwest 165 190 7,800  Climbing FlightAware
08:06AM 40.6670 -82.1720 237° Southwest 167 192 7,700  Descending FlightAware
08:07AM 40.6520 -82.1990 234° Southwest 166 191 7,800  Climbing FlightAware
08:07AM 40.6350 -82.2310 235° Southwest 166 191 7,700 120 Descending FlightAware
08:08AM 40.6222 -82.2531 235° Southwest 166 191 8,000 180 Climbing Indianapolis Center
08:09AM 40.5956 -82.3028 235° Southwest 165 190 8,000  Level Indianapolis Center
08:10AM 40.5703 -82.3542 237° Southwest 166 191 8,000  Level Indianapolis Center
08:11AM 40.5431 -82.4022 233° Southwest 163 188 8,000  Level Indianapolis Center
08:12AM 40.5158 -82.4506 233° Southwest 162 186 8,000  Level Indianapolis Center
08:13AM 40.4906 -82.5008 237° Southwest 163 188 8,000  Level Indianapolis Center
08:13AM 40.4747 -82.5397 242° Southwest 247 284 8,000  Level Indianapolis Center
08:14AM 40.4594 -82.5572 221° Southwest 163 188 8,000  Level Indianapolis Center
08:14AM 40.4508 -82.5836 247° West 207 238 8,000  Level Indianapolis Center
08:15AM 40.4331 -82.6058 224° Southwest 163 188 8,000  Level Indianapolis Center
08:15AM 40.4208 -82.6297 236° Southwest 152 175 8,000  Level Indianapolis Center
08:16AM 40.4069 -82.6547 234° Southwest 163 188 8,000  Level Indianapolis Center
08:17AM 40.3947 -82.6761 233° Southwest 153 176 8,000  Level Indianapolis Center
08:17AM 40.3814 -82.7031 237° Southwest 160 184 8,000  Level Indianapolis Center
08:18AM 40.3636 -82.7356 234° Southwest 161 185 8,000  Level Indianapolis Center
08:18AM 40.3547 -82.7519 235° Southwest 163 188 8,000  Level Indianapolis Center
08:18AM 40.3419 -82.7767 236° Southwest 162 186 8,000  Level Indianapolis Center
08:19AM 40.3289 -82.8000 234° Southwest 162 186 8,000  Level Indianapolis Center
08:20AM 40.3114 -82.8308 233° Southwest 162 186 8,000  Level Indianapolis Center
08:20AM 40.3033 -82.8467 236° Southwest 160 184 8,000  Level Indianapolis Center
08:21AM 40.2850 -82.8797 234° Southwest 163 188 8,000  Level Indianapolis Center
08:21AM 40.2767 -82.8958 236° Southwest 163 188 8,000  Level Indianapolis Center
08:21AM 40.2661 -82.9103 226° Southwest 163 188 8,000  Level Indianapolis Center
08:22AM 40.2450 -82.9503 235° Southwest 161 185 8,000  Level Indianapolis Center
08:22AM 40.2400 -82.9592 234° Southwest 161 185 8,000 -600 Level Indianapolis Center
08:23AM 40.2186 -83.0017 237° Southwest 169 194 7,400 -720 Descending Indianapolis Center
08:23AM 40.2089 -83.0156 227° Southwest 170 196 7,300 -540 Descending Indianapolis Center
08:24AM 40.1886 -83.0550 236° Southwest 177 204 6,900 -480 Descending Indianapolis Center
08:25AM 40.1775 -83.0747 234° Southwest 182 209 6,800 -540 Descending Indianapolis Center
08:25AM 40.1592 -83.1078 234° Southwest 177 204 6,400 -540 Descending Indianapolis Center
08:26AM 40.1467 -83.1286 232° Southwest 177 204 6,300 -300 Descending Indianapolis Center
08:26AM 40.1311 -83.1597 237° Southwest 173 199 6,100 -300 Descending Indianapolis Center
08:27AM 40.1178 -83.1822 232° Southwest 174 200 6,000 -240 Descending Indianapolis Center
08:27AM 40.1019 -83.2111 234° Southwest 175 201 5,900  Descending Indianapolis Center
08:28AM 40.0914 -83.2311 235° Southwest 171 197 6,000  Climbing Indianapolis Center
08:28AM 40.0753 -83.2606 234° Southwest 168 193 5,900  Descending Indianapolis Center
08:29AM 40.0650 -83.2797 235° Southwest 166 191 6,000  Climbing Indianapolis Center
08:29AM 40.0475 -83.3106 233° Southwest 168 193 5,900  Descending Indianapolis Center
08:30AM 40.0364 -83.3281 230° Southwest 167 192 6,000  Climbing Indianapolis Center
08:30AM 40.0203 -83.3597 236° Southwest 167 192 5,900 -60 Descending Indianapolis Center
08:36AM 39.8700 -83.6300 236° Southwest 168 193 5,700 -60 Descending FlightAware
08:36AM 39.8590 -83.6500 234° Southwest 167 192 5,700  Level FlightAware
08:37AM 39.8450 -83.6740 233° Southwest 168 193 5,700  Level FlightAware
08:37AM 39.8340 -83.6930 233° Southwest 168 193 5,700 180 Level FlightAware
08:38AM 39.8250 -83.7108 233° Southwest 167 192 5,900  Climbing Indianapolis Center
08:39AM 39.7925 -83.7686 234° Southwest 168 193 5,700 -480 Descending Indianapolis Center
08:40AM 39.7625 -83.8217 234° Southwest 174 200 5,000 -540 Descending Indianapolis Center
08:41AM 39.7328 -83.8742 234° Southwest 178 205 4,600 -540 Descending Indianapolis Center
08:42AM 39.7033 -83.9278 234° Southwest 179 206 3,900 -360 Descending Indianapolis Center
08:43AM 39.6742 -83.9786 233° Southwest 178 205 3,900  Level Indianapolis Center
08:44AM 39.6472 -84.0258 233° Southwest 169 194 3,900  Level Indianapolis Center
08:45AM 39.6206 -84.0731 234° Southwest 164 189 4,000  Climbing Indianapolis Center
08:46AM 39.5931 -84.1211 233° Southwest 163 188 3,900  Descending Indianapolis Center
08:47AM 39.5664 -84.1689 234° Southwest 163 188 4,000  Climbing Indianapolis Center
08:48AM 39.5344 -84.2242 233° Southwest 163 188 3,900 -300 Descending Indianapolis Center
08:49AM 39.5067 -84.2731 234° Southwest 164 189 3,400 -540 Descending Indianapolis Center
08:50AM 39.4764 -84.3261 234° Southwest 174 200 2,900 -300 Descending Indianapolis Center
08:51AM 39.4522 -84.3689 234° Southwest 159 183 2,900  Level Indianapolis Center
08:52AM 39.4303 -84.4069 233° Southwest 139 160 2,900  Level Indianapolis Center
08:53AM 39.4047 -84.4497 232° Southwest 137 158 3,000 60 Climbing Indianapolis Center